• In Hungary
  • List of Countries
  • For 7 days
  • Water Temperature
  • Satellite Maps
  • Weather Map
  • News
  • Weather Widgets
  • user-avatar
    Login

    Hourly Weather Prutz

    Today, 23 September, Sunday

    Time Temperature Precipitation Wind Pressure Humidity
    00:00 +12°C° 0.2 mm 1 mps 637 mmHg 81%
    01:00 +12°C° 0 mm 2 mps 637 mmHg 83%
    02:00 +12°C° 0.5 mm 2 mps 637 mmHg 84%
    03:00 +12°C° 0.5 mm 2 mps 637 mmHg 84%
    04:00 +12°C° 0.5 mm 2 mps 637 mmHg 85%
    05:00 +12°C° 0 mm 2 mps 637 mmHg 84%
    06:00 +13°C° 0 mm 2 mps 636 mmHg 84%
    07:00 +13°C° 0 mm 2 mps 636 mmHg 84%
    08:00 +15°C° 0 mm 2 mps 637 mmHg 78%
    09:00 +17°C° 0 mm 2 mps 638 mmHg 73%
    10:00 +19°C° 0 mm 2 mps 638 mmHg 67%
    11:00 +20°C° 0.1 mm 2 mps 638 mmHg 62%
    12:00 +21°C° 0.1 mm 2 mps 638 mmHg 56%
    13:00 +23°C° 0.1 mm 2 mps 638 mmHg 51%
    14:00 +23°C° 0.3 mm 2 mps 638 mmHg 55%
    15:00 +21°C° 0.3 mm 2 mps 637 mmHg 58%
    16:00 +21°C° 0.3 mm 2 mps 636 mmHg 62%
    17:00 +19°C° 0.8 mm 2 mps 635 mmHg 72%
    18:00 +17°C° 0.8 mm 2 mps 634 mmHg 82%
    19:00 +15°C° 0.8 mm 2 mps 633 mmHg 91%
    20:00 +14°C° 1.1 mm 3 mps 634 mmHg 92%
    21:00 +13°C° 1.1 mm 3 mps 634 mmHg 92%
    22:00 +13°C° 1.1 mm 3 mps 634 mmHg 93%
    23:00 +12°C° 3.4 mm 3 mps 634 mmHg 94%

    Tomorrow, 24 September, Monday

    Time Temperature Precipitation Wind Pressure Humidity
    00:00 +10°C° 3.4 mm 4 mps 635 mmHg 96%
    01:00 +8°C° 3.4 mm 4 mps 635 mmHg 97%
    02:00 +7°C° 0.6 mm 4 mps 635 mmHg 97%
    03:00 +7°C° 0.6 mm 3 mps 635 mmHg 96%
    04:00 +5°C° 0.6 mm 3 mps 636 mmHg 96%
    05:00 +5°C° 0.3 mm 3 mps 636 mmHg 95%
    06:00 +4°C° 0.3 mm 3 mps 637 mmHg 94%
    07:00 +4°C° 0.3 mm 3 mps 637 mmHg 93%
    08:00 +4°C° 0.1 mm 3 mps 638 mmHg 89%
    09:00 +4°C° 0.1 mm 3 mps 638 mmHg 85%
    10:00 +4°C° 0.1 mm 3 mps 639 mmHg 81%
    11:00 +5°C° 0.1 mm 3 mps 639 mmHg 77%
    12:00 +7°C° 0.1 mm 3 mps 640 mmHg 72%
    13:00 +7°C° 0.1 mm 3 mps 640 mmHg 67%
    14:00 +7°C° 0 mm 3 mps 640 mmHg 66%
    15:00 +7°C° 0 mm 3 mps 640 mmHg 64%
    16:00 +7°C° 0 mm 3 mps 640 mmHg 63%
    17:00 +5°C° 0 mm 3 mps 641 mmHg 70%
    18:00 +5°C° 0 mm 2 mps 641 mmHg 77%
    19:00 +3°C° 0 mm 2 mps 641 mmHg 83%
    20:00 +2°C° 0 mm 2 mps 641 mmHg 85%
    21:00 +2°C° 0 mm 2 mps 641 mmHg 87%
    22:00 +2°C° 0 mm 1 mps 641 mmHg 89%
    23:00 +2°C° 0 mm 1 mps 641 mmHg 87%

    Day after tomorrow, 25 September, Tuesday

    Time Temperature Precipitation Wind Pressure Humidity
    00:00 +1°C° 0 mm 1 mps 641 mmHg 86%
    01:00 +1°C° 0 mm 1 mps 641 mmHg 84%
    02:00 +1°C° 0 mm 1 mps 641 mmHg 80%
    03:00 +1°C° 0 mm 1 mps 641 mmHg 77%
    04:00 +1°C° 0 mm 1 mps 641 mmHg 73%
    05:00 +2°C° 0 mm 1 mps 642 mmHg 68%
    06:00 +2°C° 0 mm 1 mps 642 mmHg 62%
    07:00 +3°C° 0 mm 1 mps 642 mmHg 57%
    08:00 +5°C° 0 mm 1 mps 643 mmHg 49%
    09:00 +8°C° 0 mm 1 mps 644 mmHg 42%
    10:00 +9°C° 0 mm 2 mps 644 mmHg 34%
    11:00 +10°C° 0 mm 2 mps 644 mmHg 34%
    12:00 +13°C° 0 mm 2 mps 644 mmHg 33%
    13:00 +14°C° 0 mm 2 mps 645 mmHg 33%
    14:00 +13°C° 0 mm 2 mps 644 mmHg 37%
    15:00 +13°C° 0 mm 2 mps 644 mmHg 40%
    16:00 +13°C° 0 mm 2 mps 644 mmHg 44%
    17:00 +9°C° 0 mm 2 mps 643 mmHg 57%
    18:00 +7°C° 0 mm 1 mps 642 mmHg 70%
    19:00 +4°C° 0 mm 1 mps 642 mmHg 82%
    20:00 +4°C° 0 mm 1 mps 642 mmHg 81%
    21:00 +4°C° 0 mm 1 mps 643 mmHg 80%
    22:00 +4°C° 0 mm 1 mps 643 mmHg 79%
    23:00 +4°C° 0 mm 2 mps 643 mmHg 79%

    26 September, Wednesday

    Time Temperature Precipitation Wind Pressure Humidity
    00:00 +4°C° 0 mm 2 mps 643 mmHg 79%
    01:00 +4°C° 0 mm 2 mps 643 mmHg 78%
    02:00 +4°C° 0 mm 2 mps 643 mmHg 78%
    03:00 +4°C° 0 mm 2 mps 643 mmHg 77%
    04:00 +4°C° 0 mm 2 mps 643 mmHg 76%
    05:00 +4°C° 0 mm 2 mps 643 mmHg 73%
    06:00 +6°C° 0 mm 1 mps 643 mmHg 69%
    07:00 +6°C° 0 mm 1 mps 643 mmHg 65%
    08:00 +9°C° 0 mm 1 mps 644 mmHg 54%
    09:00 +13°C° 0 mm 1 mps 645 mmHg 43%
    10:00 +15°C° 0 mm 0 mps 646 mmHg 32%
    11:00 +18°C° 0 mm 1 mps 646 mmHg 31%
    12:00 +19°C° 0 mm 1 mps 646 mmHg 31%
    13:00 +19°C° 0 mm 1 mps 646 mmHg 30%
    14:00 +19°C° 0 mm 1 mps 646 mmHg 34%
    15:00 +18°C° 0 mm 1 mps 645 mmHg 39%
    16:00 +18°C° 0 mm 1 mps 645 mmHg 43%
    17:00 +14°C° 0 mm 1 mps 644 mmHg 55%
    18:00 +11°C° 0 mm 1 mps 643 mmHg 67%
    19:00 +8°C° 0 mm 1 mps 642 mmHg 79%
    20:00 +8°C° 0 mm 1 mps 642 mmHg 77%
    21:00 +8°C° 0 mm 1 mps 643 mmHg 75%
    22:00 +8°C° 0 mm 1 mps 643 mmHg 73%
    23:00 +8°C° 0 mm 1 mps 643 mmHg 71%

    27 September, Thursday

    Time Temperature Precipitation Wind Pressure Humidity
    00:00 +8°C° 0 mm 1 mps 642 mmHg 68%
    01:00 +8°C° 0 mm 1 mps 642 mmHg 66%
    02:00 +7°C° 0 mm 1 mps 642 mmHg 63%
    03:00 +7°C° 0 mm 1 mps 642 mmHg 60%
    04:00 +7°C° 0 mm 1 mps 642 mmHg 57%
    05:00 +8°C° 0 mm 1 mps 642 mmHg 54%
    06:00 +8°C° 0 mm 1 mps 642 mmHg 52%
    07:00 +9°C° 0 mm 1 mps 642 mmHg 50%
    08:00 +12°C° 0 mm 1 mps 643 mmHg 43%
    09:00 +15°C° 0 mm 1 mps 644 mmHg 37%
    10:00 +19°C° 0 mm 1 mps 645 mmHg 31%
    11:00 +20°C° 0 mm 1 mps 645 mmHg 31%
    12:00 +21°C° 0 mm 1 mps 645 mmHg 30%
    13:00 +22°C° 0 mm 1 mps 645 mmHg 30%
    14:00 +21°C° 0 mm 1 mps 645 mmHg 34%
    15:00 +21°C° 0 mm 1 mps 644 mmHg 38%
    16:00 +20°C° 0 mm 1 mps 643 mmHg 42%
    17:00 +16°C° 0 mm 1 mps 642 mmHg 54%
    18:00 +13°C° 0 mm 1 mps 641 mmHg 66%
    19:00 +9°C° 0 mm 0 mps 640 mmHg 79%
    20:00 +10°C° 0 mm 1 mps 640 mmHg 78%
    21:00 +9°C° 0 mm 1 mps 640 mmHg 76%
    22:00 +9°C° 0 mm 1 mps 640 mmHg 75%
    23:00 +9°C° 0 mm 1 mps 640 mmHg 75%

    28 September, Friday

    Time Temperature Precipitation Wind Pressure Humidity
    00:00 +9°C° 0 mm 1 mps 639 mmHg 74%
    01:00 +9°C° 0 mm 1 mps 639 mmHg 73%
    02:00 +8°C° 0 mm 1 mps 639 mmHg 72%
    03:00 +8°C° 0 mm 1 mps 638 mmHg 71%
    04:00 +8°C° 0 mm 1 mps 638 mmHg 70%
    05:00 +8°C° 0 mm 1 mps 638 mmHg 67%
    06:00 +9°C° 0 mm 1 mps 638 mmHg 65%
    07:00 +9°C° 0 mm 1 mps 638 mmHg 62%
    08:00 +12°C° 0 mm 1 mps 639 mmHg 53%
    09:00 +15°C° 0 mm 1 mps 640 mmHg 45%
    10:00 +17°C° 0 mm 0 mps 641 mmHg 36%
    11:00 +20°C° 0 mm 1 mps 641 mmHg 35%
    12:00 +21°C° 0 mm 1 mps 640 mmHg 34%
    13:00 +21°C° 0 mm 1 mps 640 mmHg 34%
    14:00 +21°C° 0 mm 1 mps 640 mmHg 38%
    15:00 +20°C° 0 mm 1 mps 639 mmHg 42%
    16:00 +19°C° 0 mm 2 mps 639 mmHg 46%
    17:00 +16°C° 0 mm 1 mps 638 mmHg 59%
    18:00 +13°C° 0 mm 1 mps 637 mmHg 72%
    19:00 +9°C° 0 mm 0 mps 636 mmHg 84%
    20:00 +10°C° 0 mm 1 mps 636 mmHg 85%
    21:00 +9°C° 0 mm 1 mps 636 mmHg 85%
    22:00 +9°C° 0 mm 1 mps 636 mmHg 85%
    23:00 +9°C° 0 mm 1 mps 636 mmHg 85%
    Show more